Location: Unspecified
(0.0000°N, 0.0000°E)
Time: 00:46:34
(UTC+00:00)

Tiros 5 - Visible Passes

Search period start: 10 July 2025 00:00
Search period end: 20 July 2025 00:00
Orbit: 560 x 825 km, 58.1° (Epoch: 09 July)

Date Brightness Start Highest point End Pass type
(mag) Time Alt. Az. Time Alt. Az. Time Alt. Az.
10 Jul 7.4 18:47:31 10° NNW 18:51:38 67° ENE 18:55:34 12° SE visible
11 Jul 10.7 05:28:00 10° SSE 05:30:29 13° ESE 05:32:58 10° E visible
11 Jul 9.7 19:29:35 10° WNW 19:32:38 19° WSW 19:35:47 10° SSW visible
12 Jul 7.7 18:27:29 10° NW 18:31:36 71° WSW 18:35:54 10° SSE visible
13 Jul 10.4 05:06:29 10° SSE 05:10:30 20° ESE 05:14:26 10° ENE visible
13 Jul 10.2 19:11:01 10° W 19:12:39 12° WSW 19:14:19 10° SW visible
15 Jul 9.8 04:45:37 10° S 04:50:28 29° ESE 04:55:14 10° ENE visible
16 Jul 8.2 05:25:52 10° SW 05:31:31 69° WNW 05:37:00 10° NNE visible
17 Jul 9.1 04:26:55 20° S 04:30:26 43° ESE 04:35:41 10° NE visible
18 Jul 10.4 03:28:50 16° SE 03:29:16 16° ESE 03:32:34 10° E visible
18 Jul 8.5 05:07:32 18° SW 05:11:27 45° WNW 05:16:42 10° N visible
19 Jul 8.4 04:09:25 55° SSE 04:10:22 65° ESE 04:15:53 10° NE visible
